Location: Peterborough
(44.3091°N, 78.3197°W)
Time: 16:13:44
(UTC-04:00)

Transit 2A - Pass Details

Date: 31 March 2023
Orbit: 591 x 964 km, 66.7° (Epoch: 04 June)

Event Time Altitude Azimuth Distance (km) Brightness Sun altitude
Rises 07:28:14 0° 280° (W) 3,397 8.7 4.8°
Reaches altitude 10° 07:32:09 10° 307° (NW) 2,546 8.3 5.5°
Maximum altitude 07:34:55 13° 335° (NNW) 2,363 8.3 6.0°
Drops below altitude 10° 07:37:46 10° 3° (N) 2,641 8.9 6.5°
Sets 07:42:00 0° 29° (NNE) 3,634 9.9 7.3°
